Salisbury, MD

5:47 AM EDT on August 28, 2016 (GMT -0400)
Salisbury-Ocean City Wicomico Regional

Weather History for KSBY - September, 2012

Change the Weather History Date:

Friday, September 21, 2012

  Actual Average Record
Temperature  
Mean Temperature 67 °F 66 °F  
Max Temperature 81 °F 77 °F 95 °F (1931)
Min Temperature 52 °F 56 °F 34 °F (1956)
Degree Days  
Heating Degree Days 0 2  
Month to date heating degree days 1 17  
Since 1 July heating degree days 1 19  
Cooling Degree Days 2 3  
Month to date cooling degree days 150 120  
Year to date cooling degree days 1628 1103  
Growing Degree Days 16 (Base 50)    
Moisture  
Dew Point 57 °F    
Average Humidity 66    
Maximum Humidity 93    
Minimum Humidity 39    
Precipitation  
Precipitation 0.00 in 0.13 in 2.03 in (1938)
Month to date precipitation 6.78 2.77  
Year to date precipitation 29.34 33.84  
Snow  
Snow 0.00 in 0.00 in 0.00 in (2002)
Month to date snowfall 0.0 0.0  
Since 1 July snowfall 0.0 0.0  
Snow Depth 0.00 in    
Sea Level Pressure  
Sea Level Pressure 30.05 in    
Wind  
Wind Speed 3 mph (ESE)    
Max Wind Speed 15 mph    
Max Gust Speed 23 mph    
Visibility 10 miles    
Events      
T = Trace of Precipitation, MM = Missing Value Source: NWS Daily Summary

Daily Weather History Graph

Daily Weather History Graph

Search for Another Location

Airport or City:

Trip Planner

Search our weather history database for the weather conditions in past years. The results will help you decide how hot, cold, wet, or windy it might be!

Date:

Astronomy

Sep. 21, 2012 Rise Set
Actual Time 6:49 AM EDT 6:59 PM EDT
Civil Twilight 6:22 AM EDT 7:26 PM EDT
Nautical Twilight 5:51 AM EDT 7:57 PM EDT
Astronomical Twilight 5:20 AM EDT 8:28 PM EDT
Moon 1:03 PM EDT (9/21) 11:03 PM EDT (9/21)
Length of Visible Light 13h 03m
Length of Day
12h 10m
Waxing Crescent, 37% of the Moon is Illuminated
Sep 21
Waxing Crescent
Sep 22
First Quarter
Sep 29
Full
Oct 8
Last Quarter
Oct 15
New

Hourly Weather History & Observations

Time (EDT) Temp. Heat Index Dew Point Humidity Pressure Visibility Wind Dir Wind Speed Gust Speed Precip Events Conditions
12:54 AM 59.0 °F - 55.0 °F 87% 30.09 in 10.0 mi Calm Calm - N/A   Clear
1:54 AM 57.9 °F - 54.0 °F 87% 30.10 in 10.0 mi Calm Calm - N/A   Clear
2:54 AM 57.0 °F - 53.1 °F 87% 30.09 in 10.0 mi Calm Calm - N/A   Clear
3:54 AM 55.9 °F - 53.1 °F 90% 30.08 in 10.0 mi Calm Calm - N/A   Clear
4:54 AM 55.9 °F - 52.0 °F 87% 30.08 in 10.0 mi Calm Calm - N/A   Clear
5:54 AM 54.0 °F - 51.1 °F 90% 30.08 in 10.0 mi Calm Calm - N/A   Clear
6:54 AM 53.1 °F - 48.9 °F 86% 30.09 in 10.0 mi Calm Calm - N/A   Clear
7:49 AM 57.2 °F - 51.8 °F 82% 30.09 in 10.0 mi Calm Calm - N/A   Clear
7:54 AM 57.9 °F - 53.1 °F 84% 30.10 in 10.0 mi Calm Calm - N/A   Clear
8:49 AM 66.2 °F - 57.2 °F 73% 30.09 in 10.0 mi Calm Calm - N/A   Clear
8:54 AM 66.9 °F - 57.0 °F 70% 30.09 in 10.0 mi Calm Calm - N/A   Clear
9:54 AM 73.0 °F - 59.0 °F 61% 30.10 in 10.0 mi NE 4.6 mph - N/A   Clear
10:54 AM 75.9 °F - 55.9 °F 50% 30.09 in 10.0 mi Calm Calm - N/A   Clear
11:54 AM 77.0 °F - 52.0 °F 42% 30.08 in 10.0 mi Calm Calm - N/A   Clear
12:54 PM 79.0 °F - 52.0 °F 39% 30.06 in 10.0 mi ENE 4.6 mph - N/A   Clear
1:52 PM 80.6 °F 80.3 °F 53.6 °F 39% 30.03 in 10.0 mi South 5.8 mph - N/A   Clear
1:54 PM 80.1 °F - 52.0 °F 38% 30.04 in 10.0 mi South 3.5 mph - N/A   Clear
2:52 PM 80.6 °F 80.3 °F 53.6 °F 39% 30.02 in 10.0 mi SW 3.5 mph - N/A   Clear
2:54 PM 80.1 °F 79.9 °F 53.1 °F 39% 30.03 in 10.0 mi Variable 5.8 mph - N/A   Clear
3:53 PM 78.8 °F - 60.8 °F 54% 30.01 in 10.0 mi SE 9.2 mph - N/A   Overcast
3:54 PM 79.0 °F - 60.1 °F 52% 30.01 in 10.0 mi Variable 6.9 mph - N/A   Overcast
4:54 PM 77.0 °F - 62.1 °F 60% 30.01 in 10.0 mi ESE 13.8 mph 18.4 mph N/A   Clear
5:53 PM 77.0 °F - 62.6 °F 61% 30.01 in 10.0 mi ESE 13.8 mph - N/A   Clear
5:54 PM 75.0 °F - 61.0 °F 62% 30.02 in 10.0 mi ESE 9.2 mph - N/A   Clear
6:53 PM 71.6 °F - 62.6 °F 73% 30.02 in 10.0 mi SE 4.6 mph - N/A   Clear
6:54 PM 70.0 °F - 62.1 °F 76% 30.03 in 10.0 mi SE 5.8 mph - N/A   Clear
7:53 PM 66.2 °F - 60.8 °F 83% 30.03 in 10.0 mi Calm Calm - N/A   Clear
7:54 PM 66.0 °F - 61.0 °F 84% 30.03 in 10.0 mi ESE 4.6 mph - N/A   Clear
8:53 PM 64.4 °F - 60.8 °F 88% 30.02 in 10.0 mi Calm Calm - N/A   Clear
8:54 PM 64.9 °F - 60.1 °F 84% 30.03 in 10.0 mi ESE 5.8 mph - N/A   Clear
9:53 PM 64.4 °F - 59.0 °F 83% 30.02 in 10.0 mi ESE 3.5 mph - N/A   Clear
9:54 PM 64.0 °F - 59.0 °F 84% 30.03 in 10.0 mi East 4.6 mph - N/A   Clear
10:54 PM 62.1 °F - 57.9 °F 86% 30.03 in 10.0 mi East 3.5 mph - N/A   Clear
11:54 PM 62.1 °F - 57.9 °F 86% 30.01 in 10.0 mi East 6.9 mph - N/A   Clear